Find Kosmos-1579

NORAD ID: 15085 Int'l Des: 1984-069 Owner: VMF Country: SU operational
LEOCIRCULAR

リアルタイム位置

3D地球を読み込み中...

Kosmos-1579について

説明を読み込み中...

次回通過

Passes for default location (London). Set your location on the main map for personalized predictions.

高度履歴

Loading altitude history...

軌道要素

1 15085U 84069A 26105.66920212 -.00000091 00000-0 -18346-5 0 9997
2 15085 65.0503 246.2396 0035933 39.0240 321.3404 13.86216810117117
Epoch: Apr 15, 2026 • Age: 10 hours

現在のステータス

高度 965.7 km
速度 7.37 km/s
衛星直下点 -52.59°S, 28.69°W
打ち上げ日 Jun 29, 1984
運用期間 41.7 years
タイプ other

技術仕様

分類 Payload
質量 1154.00 kg
乾燥質量 1154.00 kg
総質量 4300.00 kg
長さ 5.80 m
直径 1.30 m
スパン 5.80 m
形状 Cyl
製造者 KOMET
バスタイプ US-A reactor
フェーズステータス In Orbit
所有者/国 VMF/SU

Most Searched